Preview of NWS' New Version of Forecast
This preview is not operational and should not be used for support decisions.

Regional Weather Roundup (RWR)

Issued by National Weather Service (NWS)

                            
000
ASUS45 KBOU 201610
RWRCO 

WEATHER ROUNDUP FOR COLORADO
NATIONAL WEATHER SERVICE DENVER/BOULDER CO
1000 AM MDT THU JUN 20 2019

NOTE: "FAIR" INDICATES FEW OR NO CLOUDS BELOW 12000 FEET WITH NO
SIGNIFICANT WEATHER AND/OR OBSTRUCTIONS TO VISIBILITY.

COZ001>005-013-030-031-201700-
...NORTHWEST COLORADO...
  
CITY           SKY/WX    TMP DP  RH WIND       PRES   REMARKS
CRAIG          FAIR      69  37  30 N6        29.94F                  
HAYDEN         FAIR      65  38  36 VRB3      29.98F                  
MEEKER         FAIR      67  42  40 VRB3      29.95F                  
RANGELY        FAIR      72  41  33 N5        29.88F                  
RABBIT EARS PA NOT AVBL                                               
STEAMBOAT SPGS FAIR      61  43  52 CALM      29.98F                  
WALDEN         NOT AVBL                                               
$$

COZ006>008-011-201700-
...WEST CENTRAL VALLEYS...
  
CITY           SKY/WX    TMP DP  RH WIND       PRES   REMARKS
GRAND JUNCTION FAIR      77  42  28 CALM      29.86F                  
MONTROSE       FAIR      75  41  29 CALM      29.96F                  
EAGLE          FAIR      66  43  43 CALM      29.99F                  
RIFLE          FAIR      70  47  43 VRB3      29.92F                  
DELTA          FAIR      78  42  27 SE5       29.92F                  
NUCLA          FAIR      75  34  22 CALM      30.01S                  
$$

COZ017>023-064>068-201700-
...SOUTHWEST COLORADO...
  
CITY           SKY/WX    TMP DP  RH WIND       PRES   REMARKS
DURANGO        FAIR      70  39  32 NW5       30.09F                  
CORTEZ         FAIR      75  41  29 VRB7      30.03S                  
PAGOSA SPRINGS FAIR      66  37  34 E5        30.16F                  
TELLURIDE      CLOUDY    61  34  36 CALM      30.22F                  
WOLF CREEK PAS NOT AVBL                                               
$$

COZ009-010-012-014-032>034-037-058>063-201700-
...CENTRAL COLORADO...
  
CITY           SKY/WX    TMP DP  RH WIND       PRES   REMARKS
ASPEN          FAIR      66  39  37 NW5       30.04S                  
BUENA VISTA    FAIR      72  28  19 W14G23    30.05F                  
COPPER MTN     FAIR      50  28  43 W26G35    30.31F                  
BERTHOUD PASS  FAIR      43  32  65 W13G32    30.32R                  
COTTONWOOD PAS NOT AVBL                                               
GUNNISON       FAIR      61  43  51 CALM      30.09F                  
GRANBY         NOT AVBL                                               
KREMMLING      FAIR      61  37  41 CALM      30.02F                  
LEADVILLE      PTSUNNY   61  28  28 NW3G17    30.17F                  
MONARCH PASS   FAIR      46  30  53 MISG      30.43F                  
SALIDA         FAIR      75  31  19 W15G23    30.11F                  
SUNLIGHT       FAIR      50  32  50 SW14G31   30.26S                  
WILKERSON PASS FAIR      54  27  35 SW6G18    30.30S                  
$$

COZ069>075-201700-
...SAN LUIS VALLEY/SANGRE DE CRISTO MOUNTAINS...
  
CITY           SKY/WX    TMP DP  RH WIND       PRES   REMARKS
ALAMOSA        FAIR      72  38  29 S7        30.09S                  
DEL NORTE      FAIR      71  34  25 SW9       30.11F                  
LA VETA PASS   NOT AVBL                                               
SAGUACHE       FAIR      64  36  34 CALM      30.11F                  
$$

COZ035-036-038>040-201700-
...NORTHERN COLORADO FRONT RANGE...
  
CITY           SKY/WX    TMP DP  RH WIND       PRES   REMARKS
DENVER INTL AP PTSUNNY   67  47  48 E7        29.92F                  
AURORA         MOSUNNY   68  45  44 SE8       29.93F                  
FRONT RANGE AP MOSUNNY   68  48  49 E7        29.93                   
ERIE MUNI ARPT FAIR      68  45  42 SE6       29.95F                  
BOULDER MUN AP FAIR      68  45  42 SE6       29.90F                  
CENTENNIAL     FAIR      69  45  41 E9        29.94F                  
BROOMFIELD     MOSUNNY   63  45  51 S3        29.93F                  
FORT COLLINS   FAIR      65  50  58 SW8       29.90F                  
LONGMONT       FAIR      69  46  44 SE6       29.91F                  
$$

COZ041-046-047-076>085-087-088-201700-
...PIKES PEAK/PALMER DIVIDE AND SOUTHERN FOOTHILLS...
  
CITY           SKY/WX    TMP DP  RH WIND       PRES   REMARKS
COLO. SPRINGS  FAIR      72  42  34 E8        29.97F                  
A. F. ACADEMY  FAIR      71  39  32 S6        29.96F                  
SCHRIEVER AFB  NOT AVBL                                               
CHEYENNE MTN   NOT AVBL                                               
ELLICOTT         N/A    N/A N/A N/A SE9       29.95S                  
FALCON         FAIR      68  41  36 NE7       30.02F                  
FORT CARSON    FAIR      72  45  37 E3        29.93F                  
LIMON          FAIR      69  49  48 NE7       29.93S                  
MONUMENT HILL  FAIR      63  41  45 E8        30.02F                  
CANON CITY     FAIR      79  45  29 E12       29.90F                  
WALSENBURG     NOT AVBL                                               
TRINIDAD       FAIR      86  34  15 W13       29.94F                  
$$

COZ042>045-048>051-090-091-201700-
...NORTHEAST COLORADO...
  
CITY           SKY/WX    TMP DP  RH WIND       PRES   REMARKS
GREELEY ARPT   FAIR      68  50  52 S10G18    29.90F                  
AKRON          FAIR      66  52  60 VRB3      29.89F                  
BURLINGTON     FAIR      75  53  46 NE15      29.86R                  
WRAY           FAIR      73  52  46 N8        29.85R                  
YUMA           FAIR      66  37  34 N6        29.87S                  
STERLING       FAIR      68  54  60 E5        29.85F                  
HOLYOKE        FAIR      73  55  53 N6        29.85S                  
FORT MORGAN    FAIR      65  47  52 SE7       29.90F                  
$$

COZ086-089-092>099-201700-
...SOUTHEAST COLORADO...
  
CITY           SKY/WX    TMP DP  RH WIND       PRES   REMARKS
PUEBLO         FAIR      75  51  43 SE8       29.88S                  
LA JUNTA       FAIR      82  49  31 SE6       29.85S                  
LAMAR          FAIR      79  54  41 N9        29.81S                  
SPRINGFIELD      N/A     79  51  37 N8        29.86R                  
$$